TimeHST,TemperatureF,Dew PointF,Humidity,Sea Level PressureIn,VisibilityMPH,Wind Direction,Wind SpeedMPH,Gust SpeedMPH,PrecipitationIn,Events,Conditions,WindDirDegrees,DateUTC
12:49 AM,64.4,55.4,73,30.13,10.0,SW,6.9,-,N/A,,Mostly Cloudy,230,2013-02-02 10:49:00
12:53 AM,64.9,55.9,73,30.12,10.0,SW,6.9,-,N/A,,Mostly Cloudy,230,2013-02-02 10:53:00
1:53 AM,64.0,55.0,73,30.10,10.0,WSW,6.9,-,N/A,,Mostly Cloudy,240,2013-02-02 11:53:00
2:53 AM,63.0,50.0,63,30.08,10.0,SW,4.6,-,N/A,,Clear,230,2013-02-02 12:53:00
3:53 AM,62.1,52.0,70,30.09,10.0,WSW,9.2,-,N/A,,Partly Cloudy,240,2013-02-02 13:53:00
4:53 AM,64.0,53.1,67,30.10,10.0,SW,5.8,-,N/A,,Mostly Cloudy,230,2013-02-02 14:53:00
5:53 AM,64.0,52.0,65,30.12,10.0,Calm,Calm,-,N/A,,Overcast,0,2013-02-02 15:53:00
6:06 AM,63.0,51.1,65,30.13,10.0,SW,9.2,-,N/A,,Overcast,230,2013-02-02 16:06:00
6:23 AM,63.0,51.1,65,30.13,10.0,SW,9.2,-,N/A,,Overcast,230,2013-02-02 16:23:00
6:53 AM,63.0,51.1,65,30.14,10.0,SW,6.9,-,N/A,,Scattered Clouds,230,2013-02-02 16:53:00
7:53 AM,66.0,55.0,68,30.17,10.0,SW,5.8,-,N/A,,Mostly Cloudy,220,2013-02-02 17:53:00
8:53 AM,69.1,57.9,68,30.18,10.0,Calm,Calm,-,N/A,,Scattered Clouds,0,2013-02-02 18:53:00
9:53 AM,75.9,57.9,54,30.19,10.0,East,9.2,-,N/A,,Scattered Clouds,100,2013-02-02 19:53:00
10:53 AM,77.0,54.0,45,30.18,10.0,ESE,12.7,-,N/A,,Scattered Clouds,110,2013-02-02 20:53:00
11:53 AM,78.1,57.0,48,30.16,10.0,East,12.7,-,N/A,,Scattered Clouds,100,2013-02-02 21:53:00
12:53 PM,78.1,57.9,50,30.13,10.0,East,12.7,-,N/A,,Partly Cloudy,80,2013-02-02 22:53:00
1:53 PM,78.1,57.0,48,30.11,10.0,East,9.2,-,N/A,,Partly Cloudy,80,2013-02-02 23:53:00
2:53 PM,78.1,55.9,46,30.10,10.0,NE,13.8,-,N/A,,Partly Cloudy,50,2013-02-03 00:53:00
3:53 PM,75.0,57.0,53,30.11,10.0,ENE,9.2,-,N/A,,Mostly Cloudy,70,2013-02-03 01:53:00
4:53 PM,73.9,57.0,55,30.12,10.0,NE,9.2,-,N/A,,Overcast,50,2013-02-03 02:53:00
5:53 PM,73.0,57.0,57,30.14,10.0,NNE,6.9,-,N/A,,Overcast,30,2013-02-03 03:53:00
6:53 PM,72.0,57.0,59,30.14,10.0,NNE,6.9,-,N/A,,Overcast,30,2013-02-03 04:53:00
7:53 PM,71.1,54.0,55,30.16,10.0,NE,6.9,-,N/A,,Overcast,40,2013-02-03 05:53:00
8:53 PM,71.1,54.0,55,30.17,10.0,NNE,3.5,-,N/A,,Overcast,30,2013-02-03 06:53:00
9:53 PM,70.0,55.0,59,30.17,10.0,NNE,3.5,-,N/A,,Overcast,20,2013-02-03 07:53:00
10:53 PM,66.9,55.9,68,30.16,10.0,Variable,3.5,-,N/A,,Mostly Cloudy,0,2013-02-03 08:53:00
11:53 PM,64.0,54.0,70,30.14,10.0,SW,5.8,-,N/A,,Partly Cloudy,230,2013-02-03 09:53:00